Powrót do katalogu

KUIPER-00544

AktywnyŁącznośćVLEO
NORAD 69613·PAYLOAD·🇺🇸 United States

Wystrzelony Jun 17, 2026 z Guiana Space Centre

Loading…

Następne Przeloty (najbliższe 24 godziny)

TLE

ŚwieżeSource: CelesTrak SupGP

Epoka: Sep 14, 2026, 21:27 UTC

1 69613C 26140X   26257.89385417 -.01142100  00000+0 -46104-1 0  2578
2 69613  51.8799 324.9732 0005124 154.6054 235.5589 15.25354474    11

Śledź KUIPER-00544 w czasie rzeczywistym z AllMySat

Download on the App Store